Location: Biltmore Gardens
(41.6070°N, 83.4666°W)
Time: 14:01:56
(UTC+00:00)

SAR-Lupe-4 - Pass Details

Date: 14 July 2020
Orbit: 481 x 485 km, 98.2° (Epoch: 21 July)

Event Time Altitude Azimuth Distance (km) Brightness Sun altitude
Rises 09:29:35 0° 157° (SSE) 2,531 7.0 -7.5°
Reaches altitude 10° 09:31:39 10° 154° (SSE) 1,656 6.2 -7.2°
Maximum altitude 09:35:09 60° 74° (ENE) 558 4.2 -6.6°
Drops below altitude 10° 09:38:41 10° 354° (N) 1,668 6.7 -6.1°
Sets 09:40:46 0° 351° (N) 2,553 7.6 -5.8°
